Home > Time Zones > World Clock > Weather > Spain > Jaén > Past weeks

Flag for Spain Weather past 2 weeks in Jaén, Spain

Now
100 °F

Passing clouds.


Feels Like: 97 °F
Forecast: 67 / 97 °F
Wind: 14 mph from West

Location: Granada / Aeropuerto

Current Time: Jul 1, 2015 at 5:49:54 PM

Latest Report: Jul 1, 2015 at 5:30 PM


Visibility: N/A

Pressure: 29.95 "Hg

Humidity: 16%

Dew point: 46 °F

Location of JaénLocation

Historic Weather in Jaén — Graph

°F

Jaén temperature yesterday

Maximum temperature yesterday: 104 °F (at 2:00 PM)
Minimum temperature yesterday: 64 °F (at 6:30 AM)
Average temperature yesterday: 89 °F

Past Weeks' High & Low Weather Summary

 TemperatureHumidityPressure
High106 °F (Jun 28, 4:00 PM)82% (Jun 18, 6:00 AM)30.24 "Hg (Jun 18, 6:00 AM)
Low52 °F (Jun 17, 7:00 AM)9% (Jun 29, 6:00 PM)29.95 "Hg (Jul 1, 3:00 PM)
Average83 °F32%30.09 "Hg
* Reported Jun 16 5:00 PM — Jul 1 5:00 PM, Jaén, Weather by CustomWeather, © 2015

Note: Actual official high and low records may vary slightly from our data, if they occured in-between our weather recording intervals... More about our weather records

Advertising

Jaén weather history for previous 24 hours

 ConditionsComfort  
Time TempWeatherWind HumidityBarometerVisibility
5:00 PM
Wed, Jul 1
102 °FPassing clouds.13 mph15%29.95 "HgN/A
4:30 PM102 °FPassing clouds.10 mph15%29.95 "HgN/A
4:00 PM102 °FPassing clouds.6 mph14%29.95 "HgN/A
3:30 PM100 °FSunny.7 mph16%29.95 "Hg10 mi
3:00 PM99 °FPassing clouds.7 mph17%29.95 "HgN/A
2:30 PM99 °FPassing clouds.6 mph18%29.98 "HgN/A
2:00 PM95 °FSunny.2 mph19%29.98 "Hg10 mi
1:30 PM95 °FSunny.3 mph19%29.98 "Hg10 mi
1:00 PM91 °FPassing clouds.6 mph20%30.01 "HgN/A
12:30 PM91 °FSunny.1 mph23%30.01 "Hg10 mi
12:00 PM88 °FSunny.2 mph25%30.01 "Hg10 mi
11:30 AM86 °FSunny.1 mph25%30.01 "Hg10 mi
11:00 AM84 °FSunny.No wind31%30.01 "Hg10 mi
10:30 AM81 °FSunny.No wind34%30.04 "Hg10 mi
10:00 AM77 °FSunny.No wind42%30.04 "Hg10 mi
9:30 AM73 °FSunny.No wind50%30.04 "Hg10 mi
9:00 AM70 °FSunny.No wind53%30.04 "Hg10 mi
8:30 AM70 °FSunny.No wind50%30.04 "Hg10 mi
8:00 AM66 °FSunny.No wind56%30.04 "Hg10 mi
7:00 AM68 °FClear.1 mph53%30.01 "Hg10 mi
6:30 AM68 °FClear.2 mph53%30.01 "Hg10 mi
6:00 AM68 °FClear.2 mph53%30.01 "Hg10 mi
11:30 PM
Tue, Jun 30
86 °FPassing clouds.8 mph20%30.01 "HgN/A
11:00 PM86 °FPassing clouds.6 mph20%30.01 "HgN/A
10:30 PM88 °FSunny.8 mph18%30.01 "Hg10 mi
10:00 PM90 °FPassing clouds.10 mph18%30.01 "HgN/A
9:30 PM91 °FSunny.8 mph17%29.98 "Hg10 mi
9:00 PM93 °FSunny.9 mph16%29.98 "Hg10 mi
8:30 PM97 °FPassing clouds.8 mph14%29.98 "HgN/A
8:00 PM99 °FPassing clouds.9 mph14%29.98 "HgN/A
7:00 PM100 °FPassing clouds.14 mph13%29.98 "HgN/A
6:30 PM100 °FPassing clouds.14 mph13%29.98 "HgN/A
5:00 PM104 °FPassing clouds.13 mph11%29.98 "HgN/A
Weather by CustomWeather, © 2015

See weather overviewHow to use our weather pages